Regional Weather Roundup
Issued by NWS

Home | Current Version | Previous Version | Text Only | Print | Product List | Glossary On
Versions: 1 2 3 4 5 6 7 8 9 10 11 12 13 14 15 16 17 18 19 20 21 22 23 24 25 26 27 28 29 30 31 32 33 34 35 36 37 38 39 40 41 42 43 44 45 46 47 48 49 50
361
ASUS42 KTBW 251215
RWRFL
FLORIDA REGIONAL WEATHER ROUNDUP
NATIONAL WEATHER SERVICE TAMPA BAY RUSKIN FL
700 AM EST SUN FEB 25 2018

NOTE: "FAIR" INDICATES FEW OR NO CLOUDS BELOW 12,000 FEET WITH NO
SIGNIFICANT WEATHER AND/OR OBSTRUCTIONS TO VISIBILITY.

FLZ001>010-012>015-112-114-115-251300-
PANHANDLE FLORIDA

CITY           SKY/WX    TMP DP  RH WIND       PRES   REMARKS
PENSACOLA      FAIR      71  69  93 S8        30.07R
MILTON NAS     MOCLDY    69  69 100 S7        30.08
CRESTVIEW      FAIR      70  68  93 S5        30.09R
DUKE FIELD     MOCLDY    71  70  98 SW9       30.08R
VALPARAISO     MOCLDY    70  70 100 S3        30.07R FOG
MARY ESTHER    PTCLDY    69  69  99 S6        30.07  FOG
PANAMA CITY    FOG       71  70  96 SE3       30.09R VSB 3/4
TYNDALL AFB    CLOUDY    70  70 100 SE8       30.10R
APALACHICOLA   CLOUDY    70  70 100 S9        30.11R

STATION/POSITION SKY/WX   TEMP    WIND        PRES    WAVE   SWELL
                          AIR SEA DIR/SP/G            HT/PER HT/PER
                          (F)     (DEG/KT/KT) (MB)    (FT/S) (FT/S)
29.2N   88.2W              73     190/  8/ 10 1018.2
28.8N   86.0W              75 75  180/ 12/ 14 1018.6R   3/ 6   2/ 6
PANAMA CITY BEAC           69 70  120/  9/ 10 1019.3R
TOWER C                    69     170/ 16/ 16 1020.0R

$$
FLZ011-016>038-118-127-128-134-139-239-251300-
NORTH FLORIDA

CITY           SKY/WX    TMP DP  RH WIND       PRES   REMARKS
MARIANNA       CLOUDY    67  67 100 S6        30.10S FOG
TALLAHASSEE    FOG       67  67 100 SE3       30.12R VSB 1/8
PERRY          FOG       62  61  97 CALM      30.15R VSB 3/4
LIVE OAK       PTCLDY    64  64 100 CALM      30.16R
CROSS CITY     FAIR      59 N/A N/A CALM      30.19S HAZE
LAKE CITY      FAIR      63  61  94 SE5       30.15S
GAINESVILLE    MOCLDY    66  64  93 SE3       30.18S
WILLISTON      CLEAR     66  66 100 CALM      30.17R FOG
PALATKA        CLOUDY    64  64 100 CALM      30.18R
MAYPORT NAS    MOCLDY    67  65  93 S6        30.16R
JACKSONVILLE   FAIR      65  62  90 S5        30.16R
JAX NAS        FAIR      70  65  84 S6        30.17R
JAX CECIL      PTCLDY    63  63 100 S6        30.16R
FERNANDINA BEA MOCLDY    70  64  83 S5        30.15R
ST AUGUSTINE   FAIR      65  64  97 S3        30.18R

STATION/POSITION SKY/WX   TEMP    WIND        PRES    WAVE   SWELL
                          AIR SEA DIR/SP/G            HT/PER HT/PER
                          (F)     (DEG/KT/KT) (MB)    (FT/S) (FT/S)
SHELL POINT                69     160/ 12/ 14 1019.2
KEATON BEACH               71     150/  8/  9 1020.8R
CEDAR KEY                  72     200/ 10/ 12 1021.3R
FERNANDINA                 68 65  150/  4/  5 1022.1R
30.7N   81.3W                 65                N/A     3/10   2/11
MAYPORT                    67 63  190/  4/  5 1021.4R
31.4N   80.9W              63 60  180/ 10/ 12 1020.6R   3/10   2/10
ST AUGUSTINE               65 60  170/  7/  7 1021.9R

$$
FLZ040-043>046-052-053-057-058-063-144-251300-
INTERIOR CENTRAL FLORIDA

CITY           SKY/WX    TMP DP  RH WIND       PRES   REMARKS
OCALA          MOCLDY    67  64  90 CALM      30.17S
LEESBURG       CLOUDY    72  68  87 S7        30.19R
SANFORD        FAIR      63  62  97 CALM      30.19R FOG
ORLANDO EXEC   FAIR      64  64 100 CALM      30.18R
ORLANDO INTL   FAIR      64  64 100 CALM      30.19R
KISSIMMEE      FOG       64  64 100 CALM      30.20R VSB 1/4
WINTER HAVEN   FAIR      65  64  97 E5        30.19R
LAKELAND       CLEAR     64  64 100 CALM      30.18R
BARTOW         FAIR      61 N/A N/A CALM      30.19R FOG
SEBRING        FOG       63  61  94 CALM      30.18R VSB 1/2
OKEECHOBEE     FAIR      66  64  94 SE6       30.16S

$$
FLZ041-047-054-059-064-141-147-251300-
EAST CENTRAL FLORIDA

CITY           SKY/WX    TMP DP  RH WIND       PRES   REMARKS
ORMOND BEACH   CLEAR     64  64 100 CALM      30.19  FOG
DAYTONA BEACH  FOG       62  62 100 CALM      30.19R VSB 1
DELAND         MOCLDY    66  64  94 S3        30.18R
JFK SPACE CTR  FAIR      67  67 100 S3        30.17R
TITUSVILLE     CLEAR     66  64  94 S7        30.18
CAPE CANAVERAL FAIR      62  61  95 CALM      30.17R
PATRICK AFB    FAIR      69  69 100 SE3       30.18R FOG
MELBOURNE      FAIR      64  63  96 CALM      30.18R
VERO BEACH     FAIR      68  65  90 S7        30.17S
FT PIERCE      FAIR      61  61 100 CALM      30.17R
STUART         PTCLDY    70  64  83 SE5       30.19R

STATION/POSITION SKY/WX   TEMP    WIND        PRES    WAVE   SWELL
                          AIR SEA DIR/SP/G            HT/PER HT/PER
                          (F)     (DEG/KT/KT) (MB)    (FT/S) (FT/S)
28.5N   80.2W              74 74  180/ 10/ 12 1021.9R   4/10   3/10
TRIDENT PIER               69 75  130/  4/  4 1023.0R
28.4N   80.5W                 74                N/A     3/10   2/11
27.5N   80.2W                 75                N/A     3/13   2/13

$$
FLZ050-056-061-142-242-148-248-149-249-151-251-155-255-
160-260-251300-
WEST CENTRAL FLORIDA

CITY           SKY/WX    TMP DP  RH WIND       PRES   REMARKS
CRYSTAL RIVER  CLOUDY    66  64  94 CALM      30.17R
INVERNESS      CLOUDY    66  66 100 CALM      30.18R
BROOKSVILLE    CLOUDY    69  66  90 SE3       30.18R
CLEARWATER AIR CLOUDY    70  68  94 CALM      30.17R
ST PETE CLEARW CLOUDY    70  67  90 SE5       30.17R
TAMPA INTL     MOCLDY    71  67  87 SE3       30.17R
TAMPA EXEC     FOG       64  64 100 CALM      30.18R VSB 3/4
PLANT CITY     FAIR      68  66  94 CALM      30.20R
MACDILL AFB    CLOUDY    70  67  90 SE5       30.17R FOG
PETER O KNIGHT CLOUDY   N/A N/A N/A SE3       30.18R
ST PETERSBURG  MOCLDY    71  67  87 S8        30.15R
SARASOTA       FAIR      65  65 100 CALM      30.15R
VENICE         FAIR      66  66 100 E5        30.16R

STATION/POSITION SKY/WX   TEMP    WIND        PRES    WAVE   SWELL
                          AIR SEA DIR/SP/G            HT/PER HT/PER
                          (F)     (DEG/KT/KT) (MB)    (FT/S) (FT/S)
27.3N   84.2W                 76                N/A     3/ 7
CLEARWATER BEACH           72 75  110/  4/  6 1021.4R
MIDDLE TAMPA BAY           70     150/  6/  7 1021.4R
VENICE                     67 74   90/  5/  6 1021.3R

$$
FLZ066-069-070-075>078-162-262-165-265-251300-
SOUTHWEST FLORIDA AND KEYS

CITY           SKY/WX    TMP DP  RH WIND       PRES   REMARKS
PUNTA GORDA    FAIR      62  60  93 E3        30.18R FOG
FT MYERS       FAIR      65  65 100 SE5       30.15R
SOUTHWEST INTL FAIR      64  64 100 SE5       30.16R
NAPLES         FAIR      67  66  97 E6        30.15S
MARCO ISLAND   FAIR      65  65 100 E7        30.17R
IMMOKALEE      FAIR      61  61 100 CALM      30.18R
MARATHON       FAIR      76  67  73 E8        30.14R
KEY WEST NAS   FAIR      74  67  78 SE12      30.15R
KEY WEST INTL  FAIR      76  68  76 SE13      30.15R

STATION/POSITION SKY/WX   TEMP    WIND        PRES    WAVE   SWELL
                          AIR SEA DIR/SP/G            HT/PER HT/PER
                          (F)     (DEG/KT/KT) (MB)    (FT/S) (FT/S)
NAPLES                        74  100/  4/  6 1021.0R
DRY TORTUGAS               75     200/  9/  9 1020.4R
SAND KEY                   77                 1021.0R
MOLASSES REEF              76 78  130/ 13/ 16 1021.6R

$$
FLZ067-068-071>074-168-172>174-251300-
SOUTHEAST FLORIDA

CITY           SKY/WX    TMP DP  RH WIND       PRES   REMARKS
W PALM BEACH   FAIR      71  66  84 SE6       30.18R
BOCA RATON     PTCLDY    73  66  78 SE6       30.17
FT LAUDER-EXEC FAIR      71  68  90 E5        30.17R
FT LAUDERDALE  FAIR      74  69  85 SE9       30.16R
POMPANO BEACH  FAIR      74  68  81 SE6       30.17R
PEMBROKE PINES FAIR      70  66  87 CALM      30.18R
OPA LOCKA      FAIR      69  66  90 E3        30.17R
MIAMI          FAIR      72  68  87 E9        30.17R
WEST KENDALL   FAIR      70  66  87 E3        30.17R
HOMESTEAD      FAIR      72  67  84 E6        30.16R

STATION/POSITION SKY/WX   TEMP    WIND        PRES    WAVE   SWELL
                          AIR SEA DIR/SP/G            HT/PER HT/PER
                          (F)     (DEG/KT/KT) (MB)    (FT/S) (FT/S)
PORT EVERGLADES            76     130/  6/ 10 1021.6R
VIRGINIA KEY               75 77   90/  8/ 10 1020.8R
LAKE WORTH                 75 76  130/ 11/ 12 1022.6R
FOWEY ROCKS                76 77  110/ 15/ 16 1022.1R
SETTLEMENT POINT           73     130/  5/  7 1022.5R

$$





USA.gov is the U.S. government's official web portal to all federal, state and local government web resources and services.